Regional Weather Roundup
Issued by NWS

Home | Current Version | Previous Version | Text Only | Print | Product List | Glossary Off
Versions: 1 2 3 4 5 6 7 8 9 10 11 12 13 14 15 16 17 18 19 20 21 22 23 24 25 26 27 28 29 30 31 32 33 34 35 36 37 38 39 40 41 42 43 44 45 46 47 48 49 50

000
ASUS43 KLMK 010702
RWRKY
KENTUCKY REGIONAL WEATHER ROUNDUP
NATIONAL WEATHER SERVICE LOUISVILLE KY
200 AM EST SUN MAR 01 2015

NOTE "FAIR" INDICATES FEW OR NO CLOUDS BELOW 12,000 FEET
WITH NO SIGNIFICANT WEATHER AND/OR OBSTRUCTIONS TO VISIBILITY.

KYZ001>023-026-027-061>063-070>075-010800-
WESTERN AND SOUTH CENTRAL KENTUCKY

CITY           SKY/WX    TMP DP  RH WIND       PRES   REMARKS
PADUCAH        CLOUDY    33  22  63 E5        30.39F WCI  29
HENDERSON      CLOUDY    32  19  59 NE9       30.40F WCI  24
OWENSBORO      MOCLDY    33  21  61 NE7       30.42F WCI  27
HOPKINSVILLE   CLOUDY    34  27  74 N5        30.37F WCI  30
BOWLING GREEN  CLOUDY    36  24  62 E3        30.39F
GLASGOW        NOT AVBL
$$

KYZ024-025-028>034-038-045-046-053-010800-
NORTH CENTRAL KENTUCKY

CITY           SKY/WX    TMP DP  RH WIND       PRES   REMARKS
LOUISVILLE/SDF CLOUDY    30  25  81 N7        30.43F WCI  23
LOUISVILLE/LOU CLOUDY    30  24  78 NE5       30.43F WCI  25
FORT KNOX      MOCLDY    31  21  65 N6        30.39S WCI  26
$$

KYZ035>037-039>044-047>052-055>060-089>105-010800-
NORTHEAST KENTUCKY

CITY           SKY/WX    TMP DP  RH WIND       PRES   REMARKS
LEXINGTON      CLOUDY    32  20  61 E8        30.42F WCI  25
COVINGTON      LGT SNOW  24  21  88 SE8       30.44F FOG     WCI  15
FRANKFORT        N/A     31  20  63 NE5       30.42F WCI  26
$$

KYZ054-064>069-076>088-106>120-010800-
SOUTHEAST KENTUCKY

CITY           SKY/WX    TMP DP  RH WIND       PRES   REMARKS
JACKSON        CLOUDY    36  18  48 CALM      30.42R
LONDON         CLOUDY    34  25  69 CALM      30.41S
SOMERSET       NOT AVBL
MIDDLESBORO    CLOUDY    34  30  85 CALM      30.44S
MONTICELLO     CLOUDY    37  29  73 CALM      30.42F
$$



USA.gov is the U.S. government's official web portal to all federal, state and local government web resources and services.